Tracking 29892 objects as of 21-Nov-2024
HD Live streaming from Space Station
objects crossing your sky now

STARLINK-3275

Track STARLINK-3275 now!
10-day predictions
STARLINK-3275 is classified as:


NORAD ID: 50188
Int'l Code: 2021-125AJ
Perigee: 478.0 km
Apogee: 488.3 km
Inclination: 53.2 °
Period: 94.1 minutes
Semi major axis: 6854 km
RCS: Unknown
Launch date: December 18, 2021
Source: United States (US)
Launch site: AIR FORCE WESTERN TEST RANGE (AFWTR)
Your satellite tracking list
Your tracking list is empty




NASA's NSSDC Master Catalog

Two Line Element Set (TLE):
1 50188U 21125AJ  24325.22778835  .00016569  00000-0  57488-3 0  9993
2 50188  53.2164 176.3099 0007526 145.2102 214.9392 15.29920339165628
Source of the keplerian elements: AFSPC